Location: Wildlife_Club
(35.6000°N, 81.4330°W)
Time: 09:02:27
(UTC-04:00)

Vanguard 2 Rocket - Pass Details

Date: 26 June 2019
Orbit: 554 x 3326 km, 32.9° (Epoch: 20 July)

Event Time Altitude Azimuth Distance (km) Brightness Sun altitude
Rises 02:26:44 0° 279° (W) 4,840 10.6 -29.4°
Reaches altitude 10° 02:29:27 10° 276° (W) 4,154 10.1 -29.3°
Maximum altitude 02:41:17 60° 200° (SSW) 2,858 8.9 -28.6°
Drops below altitude 10° 02:59:53 10° 127° (SE) 6,218 11.0 -27.2°
Sets 03:05:04 0° 124° (SE) 7,307 11.4 -26.8°
